{"data":{"norad_id":64070,"epoch":"2026-05-24T14:12:04.799808Z","epoch_age_seconds":104139,"freshness":"FRESH","line1":"1 64070U 25107G   26144.59172222  .00200570  00000+0  15219-2 0  9992","line2":"2 64070  43.0005   0.8829 0002026 247.8197 112.2456 15.70952732 59237","mean_motion":15.70952732,"eccentricity":0.0002026,"inclination_deg":43.0005,"raan_deg":0.8829,"arg_perigee_deg":247.8197,"mean_anomaly_deg":112.2456,"bstar":0.0015219,"rev_number":5923,"period_min":91.664120165265,"perigee_km":354.80850050274,"apogee_km":357.53724286275,"semimajor_km":6734.3098716827,"source":"CELESTRAK","updated_at":"2026-05-25T13:38:20.258678Z"}}